Location: Beaurecueil
(43.5122°N, 5.5450°E)
Time: 08:46:07
(UTC+00:00)

Cosmos 1939 Rocket - Visible Passes

Search period start: 17 January 2021 00:00
Search period end: 27 January 2021 00:00
Orbit: 533 x 583 km, 97.4° (Epoch: 16 January)

Date Brightness Start Highest point End Pass type
(mag) Time Alt. Az. Time Alt. Az. Time Alt. Az.
17 Jan 6.1 05:25:04 10° ENE 05:27:13 14° E 05:29:21 10° SE visible
17 Jan 3.2 17:45:03 10° S 17:49:11 73° WSW 17:53:18 10° NNW visible
18 Jan 6.1 05:23:24 10° ENE 05:25:25 14° E 05:27:24 10° ESE visible
18 Jan 3.1 17:43:16 10° S 17:47:24 76° WSW 17:51:32 10° NNW visible
19 Jan 6.2 05:21:46 10° ENE 05:23:36 13° E 05:25:26 10° ESE visible
19 Jan 3.0 17:41:29 10° S 17:45:37 79° WSW 17:49:44 10° NNW visible
20 Jan 6.2 05:20:08 10° ENE 05:21:48 12° E 05:23:27 10° ESE visible
20 Jan 3.0 17:39:42 10° S 17:43:50 83° WSW 17:47:58 10° NNW visible
21 Jan 6.3 05:18:32 10° ENE 05:19:59 12° E 05:21:26 10° ESE visible
21 Jan 2.9 17:37:56 10° SSE 17:42:03 86° WSW 17:46:10 10° NNW visible
22 Jan 6.4 05:16:58 10° ENE 05:18:11 11° E 05:19:22 10° ESE visible
22 Jan 2.9 17:36:09 10° SSE 17:40:16 90° NNW 17:44:23 10° NNW visible
23 Jan 6.4 05:15:29 10° ENE 05:16:22 11° E 05:17:15 10° ESE visible
23 Jan 2.9 17:34:22 10° SSE 17:38:29 86° E 17:42:35 10° NNW visible
24 Jan 6.6 05:14:13 10° E 05:14:33 10° E 05:14:53 10° E visible
24 Jan 2.8 17:32:35 10° SSE 17:36:42 83° ENE 17:40:47 10° N visible
25 Jan 2.8 17:30:49 10° SSE 17:34:55 79° ENE 17:38:59 10° N visible
26 Jan 2.8 17:29:02 10° SSE 17:33:07 76° ENE 17:37:11 10° N visible
